Погода в Акимовке

Россия / Алтайский край     51°35′07″N   82°35′10″E
темп.,
°C
ветер,
м/с
пор.,
м/с
влажн.,
%
обл.,
%
осадки,
мм/ч
давл.,
гПа
погр.,
м
19 мая, ср
ср1901:00+13юз338197 0.9 100835
04:00+13ю348595 0.6 100660
07:00+14юз4108544 0.6 1006284
10:00+18зюз5770100 0.0 1006811
13:00+16зсз7981100 2.4 1006806
16:00+16зсз687798 7.4 10061149
19:00+12ссв5788100 8.1 1009735
22:00+9ссв489492 0.4 1010318
20 мая, чт
чт2001:00+7ссз399330 0.4 1011264
04:00+6с6987100 0.2 1011798
07:00+4св41088100 0.6 1014648
10:00+7с69525 0.1 10161780
13:00+9ссз5741100 0.1 10162377
16:00+9сз795891 1.3 10161776
19:00+9ссз595568 2.1 10171895
22:00+4св386953 0.2 1020192
21 мая, пт
пт2101:00+2св11775 0.2 102210
04:000св11790 0.0 102310
07:00+2св23675 0.0 1025120
10:00+6св4542100 0.0 10261287
13:00+8св354094 0.0 10251569
16:00+10св56425 0.0 10241752
19:00+9всв57515 0.0 10241696
22:00+4всв34645 0.0 102642
22 мая, сб
сб2201:00+2в22691 0.0 102618
04:00+1всв32745 0.0 102623
07:00+2в24715 0.0 1027116
10:00+9всв33507 0.0 1027514
13:00+13ссв22395 0.0 1026960
16:00+15св2237100 0.0 10251279
19:00+14св34545 0.0 1025514
22:00+7всв23750 0.0 102619
23 мая, вс
вс2301:00+5в22805 0.0 102610
04:00+5вюв22824 0.0 102612
07:00+7в22755 0.0 102657
10:00+13всв23554 0.0 1025414
13:00+17всв22425 0.0 1024917
16:00+20с11390 0.0 10231224
19:00+19ссв11450 0.0 10221033
22:00+12ююв11630 0.0 102110